Flag for U.S.A. Weather past 2 weeks in Des Moines, Iowa, U.S.A.

Now
29 °F

Passing clouds.


Feels Like: 23 °F
Forecast: 8 / 29 °F
Wind: 6 mph from North

Location: Des Moines International Airport

Current Time: Mar 1, 2015 at 7:18:18 PM

Latest Report: Mar 1, 2015 at 6:54 PM


Visibility: 10 mi

Pressure: 30.43 "Hg

Humidity: 54%

Dew point: 14 °F

Location of Des MoinesLocation

Historic Weather in Des Moines — Graph

°F

Des Moines temperature yesterday

Maximum temperature yesterday: 23 °F (at 1:54 PM)
Minimum temperature yesterday: 2 °F (at 5:54 AM)
Average temperature yesterday: 14 °F

Past Weeks' High & Low Weather Summary

 TemperatureHumidityPressure
High39 °F (Feb 20, 3:54 PM)85% (Feb 28, 7:54 PM)30.87 "Hg (Feb 28, 7:54 PM)
Low-7 °F (Feb 27, 6:54 AM)35% (Feb 23, 1:54 PM)29.81 "Hg (Feb 25, 12:54 PM)
Average15 °F58%30.32 "Hg
* Reported Feb 14 5:54 PM — Mar 1 5:54 PM, Des Moines, Weather by CustomWeather, © 2015

Note: Actual official high and low records may vary slightly from our data, if they occured in-between our weather recording intervals... More about our weather records

Advertising

Des Moines weather history for previous 24 hours

 ConditionsComfort  
Time TempWeatherWind HumidityBarometerVisibility
5:54 PM
Sun, Mar 1
30 °FPassing clouds.12 mph54%30.42 "Hg10 mi
4:54 PM33 °FPassing clouds.14 mph52%30.39 "Hg10 mi
3:54 PM33 °FPassing clouds.13 mph49%30.38 "Hg10 mi
2:54 PM33 °FPassing clouds.8 mph52%30.38 "Hg10 mi
1:54 PM32 °FPassing clouds.13 mph54%30.37 "Hg10 mi
12:54 PM31 °FPassing clouds.9 mph59%30.38 "Hg10 mi
11:54 AM29 °FScattered clouds.10 mph61%30.41 "Hg10 mi
10:54 AM28 °FScattered clouds.8 mph64%30.40 "Hg10 mi
9:54 AM26 °FPartly sunny.7 mph66%30.41 "Hg10 mi
8:54 AM24 °FScattered clouds.7 mph68%30.41 "Hg10 mi
7:54 AM22 °FOvercast.3 mph78%30.38 "Hg9 mi
6:54 AM22 °FLight snow. Overcast.6 mph75%30.39 "Hg9 mi
5:54 AM22 °FOvercast.5 mph78%30.39 "Hg9 mi
4:54 AM21 °FLight snow. Overcast.3 mph81%30.37 "Hg8 mi
3:54 AM21 °FLight snow. Ice fog.3 mph85%30.37 "Hg6 mi
2:54 AM21 °FLight snow. Overcast.5 mph81%30.39 "Hg7 mi
1:54 AM20 °FLight snow. Ice fog.7 mph85%30.41 "Hg6 mi
12:54 AM20 °FLight snow. Ice fog.7 mph85%30.41 "Hg6 mi
11:54 PM
Sat, Feb 28
21 °FLight snow. Overcast.7 mph81%30.42 "Hg6 mi
10:54 PM21 °FLight snow. Ice fog.7 mph85%30.43 "Hg6 mi
9:54 PM21 °FLight snow. Ice fog.6 mph85%30.45 "Hg6 mi
8:54 PM22 °FLight snow. Mostly cloudy.7 mph82%30.44 "Hg6 mi
7:54 PM22 °FLight snow. Mostly cloudy.6 mph85%30.45 "Hg7 mi
Weather by CustomWeather, © 2015

See weather overviewHow to use our weather pages